Weather History for Olympia, WA

Change the Weather History Date:

Sunday, November 18, 2012

  Actual Average Record
Temperature  
Mean Temperature 46 °F 43 °F  
Max Temperature 49 °F 49 °F 61 °F (1968)
Min Temperature 43 °F 36 °F 20 °F (1994)
Degree Days  
Heating Degree Days 19 22  
Month to date heating degree days 340 366  
Since 1 July heating degree days 1118 1160  
Cooling Degree Days 0 0  
Month to date cooling degree days 0 0  
Year to date cooling degree days 82 106  
Moisture  
Dew Point 43 °F    
Average Humidity 87    
Maximum Humidity 93    
Minimum Humidity 80    
Precipitation  
Precipitation 0.64 in 0.31 in 2.02 in (1958)
Month to date precipitation 3.61 4.99  
Year to date precipitation 44.31 38.90  
Sea Level Pressure  
Sea Level Pressure 29.65 in    
Wind  
Wind Speed 16 mph (South)    
Max Wind Speed 25 mph    
Max Gust Speed 39 mph    
Visibility 9 miles    
Events Rain    
T = Trace of Precipitation, MM = Missing Value Source: NWS Daily Summary

Daily Weather History Graph

Daily Weather History Graph

Search for Another Location

Airport:

Trip Planner

Search our weather history database for the weather conditions in past years. The results will help you decide how hot, cold, wet, or windy it might be!

Date:

Astronomy

Nov. 18, 2012 Rise Set
Actual Time 7:20 AM PST 4:33 PM PST
Civil Twilight 6:46 AM PST 5:06 PM PST
Nautical Twilight 6:09 AM PST 5:44 PM PST
Astronomical Twilight 5:33 AM PST 6:20 PM PST
Moon 11:46 AM PST 10:05 PM PST
Length of Visible Light 10h 20m
Length of Day
9h 13m
Waxing Crescent, 31% of the Moon is Illuminated
Nov 18
Waxing Crescent
Nov 20
First Quarter
Nov 28
Full
Dec 6
Last Quarter
Dec 13
New

Hourly Weather History & Observations

Time (PST) Temp. Windchill Dew Point Humidity Pressure Visibility Wind Dir Wind Speed Gust Speed Precip Events Conditions
12:54 AM 44.1 °F 36.2 °F 41.0 °F 89% 29.72 in 10.0 mi South 18.4 mph 24.2 mph 0.00 in Rain Light Rain
1:54 AM 44.1 °F 37.1 °F 41.0 °F 89% 29.73 in 10.0 mi South 15.0 mph - 0.01 in   Mostly Cloudy
2:54 AM 44.1 °F 37.1 °F 41.0 °F 89% 29.74 in 9.0 mi South 15.0 mph - 0.00 in Rain Light Rain
3:54 AM 44.1 °F 36.2 °F 41.0 °F 89% 29.75 in 10.0 mi South 18.4 mph 25.3 mph 0.09 in Rain Light Rain
4:54 AM 43.0 °F 35.7 °F 39.9 °F 89% 29.75 in 10.0 mi South 15.0 mph - 0.00 in   Mostly Cloudy
5:54 AM 44.1 °F 39.5 °F 41.0 °F 89% 29.75 in 10.0 mi South 8.1 mph - 0.01 in Rain Light Rain
6:54 AM 44.1 °F 38.6 °F 42.1 °F 93% 29.74 in 10.0 mi South 10.4 mph - 0.04 in   Overcast
7:19 AM 44.6 °F 39.7 °F 42.8 °F 93% 29.74 in 10.0 mi SSW 9.2 mph - 0.00 in Rain Light Rain
7:54 AM 45.0 °F 38.9 °F 42.1 °F 90% 29.74 in 6.0 mi South 12.7 mph - 0.02 in Rain Light Rain
8:54 AM 45.0 °F 38.2 °F 42.1 °F 90% 29.75 in 10.0 mi South 15.0 mph 21.9 mph 0.02 in Rain Light Rain
9:01 AM 44.6 °F 39.2 °F 42.8 °F 93% 29.74 in 10.0 mi South 10.4 mph 20.7 mph 0.00 in Rain Light Rain
9:08 AM 44.6 °F 38.1 °F 42.8 °F 93% 29.75 in 10.0 mi South 13.8 mph 19.6 mph 0.00 in Rain Light Rain
9:54 AM 46.0 °F 39.6 °F 42.1 °F 86% 29.74 in 10.0 mi South 15.0 mph 26.5 mph 0.01 in   Overcast
10:54 AM 46.9 °F - 43.0 °F 86% 29.75 in 10.0 mi South 15.0 mph 23.0 mph 0.00 in   Mostly Cloudy
11:54 AM 48.0 °F - 42.1 °F 80% 29.72 in 10.0 mi South 13.8 mph 23.0 mph 0.00 in   Overcast
12:54 PM 48.9 °F - 43.0 °F 80% 29.69 in 10.0 mi South 15.0 mph 25.3 mph N/A   Overcast
1:54 PM 48.9 °F - 43.0 °F 80% 29.67 in 10.0 mi South 15.0 mph 23.0 mph N/A   Overcast
2:54 PM 48.9 °F - 43.0 °F 80% 29.64 in 10.0 mi South 13.8 mph 24.2 mph N/A   Overcast
3:54 PM 48.9 °F - 43.0 °F 80% 29.60 in 10.0 mi South 12.7 mph 20.7 mph 0.00 in Rain Light Rain
4:54 PM 48.9 °F - 43.0 °F 80% 29.55 in 10.0 mi South 20.7 mph 28.8 mph 0.01 in Rain Light Rain
5:54 PM 48.2 °F - 42.8 °F 82% 29.51 in 7.0 mi South 25.3 mph 35.7 mph N/A Rain Light Rain
6:54 PM 46.9 °F - 44.1 °F 90% 29.52 in 6.0 mi South 20.7 mph 31.1 mph 0.05 in Rain Light Rain
7:01 PM 48.2 °F - 44.6 °F 87% 29.52 in 7.0 mi SSW 21.9 mph 33.4 mph 0.01 in Rain Light Rain
7:26 PM 48.2 °F - 44.6 °F 87% 29.52 in 6.0 mi SSW 16.1 mph 28.8 mph 0.02 in Rain Light Rain
7:51 PM 48.2 °F - 44.6 °F 87% 29.53 in 9.0 mi South 18.4 mph 33.4 mph 0.04 in Rain Light Rain
7:54 PM 48.0 °F - 44.1 °F 86% 29.54 in 8.0 mi South 18.4 mph 33.4 mph 0.04 in Rain Light Rain
8:16 PM 46.4 °F 39.5 °F 44.6 °F 93% 29.55 in 4.0 mi South 17.3 mph 29.9 mph 0.07 in Rain Rain
8:54 PM 48.0 °F - 45.0 °F 89% 29.56 in 10.0 mi South 18.4 mph 31.1 mph 0.13 in Rain Light Rain
9:54 PM 48.0 °F - 45.0 °F 89% 29.57 in 8.0 mi South 19.6 mph 25.3 mph 0.06 in Rain Light Rain
10:54 PM 48.0 °F - 46.0 °F 93% 29.56 in 9.0 mi South 17.3 mph 28.8 mph 0.08 in Rain Light Rain
11:54 PM 48.9 °F - 46.0 °F 90% 29.57 in 10.0 mi South 17.3 mph 25.3 mph 0.00 in   Overcast